STARLINK-38076, 69740

Orbit data source: Space-Track

STARLINK-38076, 69740 is a payload satellite owned by SpaceX/Seattle (US) in SSO that was launched on Thu, 02 Jul 2026 UTC via an FALCON 9 launch vehicle from the Air Force Western Test Range (AFWTR). Payload-class satellites include a variety of spacecraft equipped with specific instruments for various scientific and technological missions. These include communications satellites like Starlink; space stations such as the ISS; scientific satellites like the Hubble; Earth observation satellites from companies like Planet Labs, Umbra, and HawkEye 360; GPS; miniature CubeSats for education and research; and military/defense satellites.

Loading next visibility...
Identifier
69740, 2026-150B
Orbit
SSO
Country
Flag of USUS
Related business
Manufacturer
SpaceX/Seattle
Mission
Operational spacecraft
Bus & Motor
STARLINK V2MO, Unknown motor
Mass
575 kg wet, ~530 kg dry
Launch date (UTC)
2026-07-02 (3 weeks ago)
Launch vehicle
FALCON 9
Launch site
Air Force Western Test Range (AFWTR)
Object type
Payload
Rocket body
Debris
Shape & HBR
Unknown shape, 17.7 m
Radar Cross Section
Large (>1 m²)

Expand to show TLE details & history
Last TLE update: 17 hours ago

TLE from 17 hours ago
0 STARLINK-38076
1 69740U 26150B   26202.51913116  .00349372  00000-0  22344-2 0  9994
2 69740  97.2842  41.1447 0001232 123.1888 236.9495 15.75337500  4312
Epoch: 2026-07-21T12:27Z
TLE epoch observation values (Epoch: 2026-07-21T12:27:32.932Z)
Latitude
-0.00006°
Longitude
-85.03017°
Altitude
347.291 km
Speed
7.7 km/s
True Right ascension
02h 44m 34s
True Declination
0° 00' 00"
Sunlit
Object was in daylight at epoch
Visualization orbit readout
Latitude
Unknown
Longitude
Unknown
Altitude
Unknown
Speed
Unknown
Apparent Right ascension
Unknown
Apparent Declination
Unknown
Sunlit
N/A
Visualization observer readout
Local Sidereal Time
18:38:53
Azimuth
Unknown
Elevation
Unknown
Doppler factor
Unknown
Orbital elements
Apogee altitude
341.386 km
Perigee altitude
339.73 km
Semi-major axis
6,718.695 km
Eccentricity
0.00012
Inclination
97.2842°
RAAN
41.1447°
Arg. of periapsis
123.1888°
True anomaly
236.93767°
Mean anomaly
236.9495°
Eccentric anomaly
236.94358°
Mean motion
3.94108 °/min
Orbital period
91.35 mins
BSTAR
0.0022344
Loading maneuver chart data...
Computing Atmospheric mass density...
Loading historical data...
Loading historical data...
Loading historical data...
Loading historical data...
Loading historical data...
Loading historical data...
Loading historical data...

Documentation

Showing up to 5 results
|